DELTA 1 DEB, 10718

Orbit data source: Space-Track

DELTA 1 DEB, 10718 is space debris in SSO originally from a launch on Thu, 29 Jul 1976 UTC launched from the Air Force Western Test Range (AFWTR). Debris objects in space refer to the collection of defunct objects orbiting the Earth. Examples of debris include non-operational satellites, rocket bodies, and fragments generated from explosions, collisions, or faulty payload assembly.

Loading next visibility...
Identifier
10718, 1976-077AP
Orbit
SSO
Last TLE update
1 day ago
Origin
Manufacturer
Unknown
Mission
Spacecraft
Bus & Motor
Unknown
Mass
Unknown
Launch date (UTC)
1976-07-29 (49 years ago)
Launch vehicle
Unknown
Launch site
Air Force Western Test Range (AFWTR)
Object type
Payload
Rocket body
Debris
Shape & HBR
Unknown
Radar Cross Section
Small (<0.1 m²)

Expand to show TLE details & history

TLE from 1 day ago
0 DELTA 1 DEB
1 10718U 76077AP  25128.37364171  .00000063  00000-0  75844-3 0  9994
2 10718 101.6521 165.9975 0054737 123.2098 256.0131 12.42819631210725
Epoch: 2025-05-08T08:58Z
Definitive object data (Epoch: 2025-05-08T08:58:02.643Z)
Latitude
18.21392°
Longitude
161.16957°
Altitude
1,507.358 km
Speed
7.108 km/s
True Right ascension
10h 48m 30s
True Declination
18° 07' 18"
Sunlit
Object was in daylight at TLE epoch
Visualization TLE readout
Latitude
16.95662°
Longitude
-10.41131°
Altitude
1,464.182 km
Speed
7.147 km/s
Apparent Right ascension
01h 29m 16s
Apparent Declination
-10° 57' 25"
Sunlit
Object is in daylight
Visualization observer readout
Local Sidereal Time
17:04:18
Azimuth
74.028° E
Elevation
-34.55°
Doppler factor
1
Orbital elements
Apogee altitude
1,535.304 km
Perigee altitude
1,449.144 km
Semi-major axis
7,870.361 km
Eccentricity
0.0054737
Inclination
101.6521°
RAAN
165.9975°
Arg. of periapsis
123.2098°
True anomaly
255.40547°
Mean anomaly
256.0131°
Eccentric anomaly
255.70918°
Mean motion
3.1085 °/min
BSTAR
0.00075844
Orbital period
115.81 mins
Loading maneuver chart data...
Loading SW <> Apogee altitude chart data...
Loading historical data...
Loading historical data...
Loading historical data...
Loading historical data...
Loading historical data...
Loading historical data...
Loading historical data...

DELTA 1 DEB Visibility forecast

Observer location: undefined°, undefined°

Span
Click to sort rows by Start time (UTC) header in descending order
Start Az.
Max El. time (UTC)
Max El. Az.
Max El.
End time (UTC)
End Az.
14 mins2025-05-09 14:29:04.447Z33.827° NE2025-05-09 14:36:04.447Z96.989° ESE32.229°2025-05-09 14:43:04.447Z162.974° S
13 mins2025-05-09 16:24:04.447Z0.655° NNE2025-05-09 16:30:04.447Z295.205° NW36.008°2025-05-09 16:37:04.447Z229.22° WSW
4 mins2025-05-09 23:47:04.447Z54.354° ENE2025-05-09 23:48:04.447Z46.982° ENE12.049°2025-05-09 23:51:04.447Z25.218° NE
14 mins2025-05-10 01:34:04.447Z135.566° SSE2025-05-10 01:40:04.447Z71.489° E39.607°2025-05-10 01:48:04.447Z351.509° N
13 mins2025-05-10 03:28:04.447Z206.979° SW2025-05-10 03:34:04.447Z259.928° W28.352°2025-05-10 03:41:04.447Z321.683° NNW
|